FW2970 Woods Hole MA US current weather conditions

sailwx.info

Wind from 350 at 8 knots gusting 14

Air temperature 3.9° C
Dewpoint 1.8° C

Last reported at 2020-Oct-31 13:02 UTC.
Time now 2020-Oct-31 13:28 UTC

Location: N 41°32' W 070°41'.
View on Google Maps.

See reports from other nearby stations

  
Tides and Currents Weather Stations Pressure Air Temp Water Temp Dewpoint Dewpoint Depression Visibility Wind Speed Wind Dir Waves Ship Positions
date/time (UTC)wind fromknots sea level pressurealtimeterstation pressurevisibilityair tempwater tempwave heightnotes
2020-Oct-31 13:02 350 8 gusting 14 3.9
2020-Oct-31 12:46 321 10 gusting 15 3.9
2020-Oct-31 12:31 360 9 gusting 14 3.3
2020-Oct-31 12:16 351 10 gusting 15 3.3
2020-Oct-31 12:02 006 9 gusting 15 3.3
2020-Oct-31 11:46 329 10 gusting 14 2.8
2020-Oct-31 11:31 349 8 gusting 13 2.8
2020-Oct-31 11:16 020 8 gusting 13 2.8
2020-Oct-31 11:01 032 10 gusting 15 2.8
2020-Oct-31 10:45 333 10 gusting 14 2.8
2020-Oct-31 10:31 326 10 gusting 14 2.8
2020-Oct-31 10:15 345 10 gusting 16 2.8
2020-Oct-31 10:01 351 11 gusting 16 2.8
2020-Oct-31 09:45 010 12 gusting 17 2.8
2020-Oct-31 09:30 018 11 gusting 18 2.8
2020-Oct-31 09:15 329 10 gusting 17 2.8
2020-Oct-31 09:00 027 11 gusting 16 2.8
2020-Oct-31 08:45 026 11 gusting 17 3.3
2020-Oct-31 08:30 331 13 gusting 18 3.3
2020-Oct-31 08:15 359 12 gusting 17 3.3
2020-Oct-31 08:02 351 12 gusting 18 3.3
2020-Oct-31 07:46 332 12 gusting 17 3.3
2020-Oct-31 07:31 025 13 gusting 19 3.3
2020-Oct-31 07:17 350 11 gusting 17 3.3
2020-Oct-31 07:01 328 12 gusting 18 3.3
2020-Oct-31 06:46 348 12 gusting 17 3.3
2020-Oct-31 06:31 001 13 gusting 19 3.3
2020-Oct-31 06:16 018 13 gusting 19 3.3
2020-Oct-31 06:01 342 12 gusting 18 3.9
2020-Oct-31 05:46 330 12 gusting 18 3.9
2020-Oct-31 05:31 334 13 gusting 18 3.9
2020-Oct-31 05:16 335 12 gusting 18 3.9
2020-Oct-31 05:00 352 13 gusting 19 3.9
2020-Oct-31 04:46 352 13 gusting 19 3.9
2020-Oct-31 04:30 345 13 gusting 19 3.3
2020-Oct-31 04:15 331 13 gusting 19 3.9
2020-Oct-31 04:00 334 13 gusting 20 3.3
2020-Oct-31 03:45 330 14 gusting 20 3.9
2020-Oct-31 03:30 340 13 gusting 19 3.9
2020-Oct-31 03:15 333 14 gusting 19 3.3
2020-Oct-31 03:00 319 14 gusting 22 3.3
2020-Oct-31 02:45 360 17 gusting 21 3.3
2020-Oct-31 02:30 356 14 gusting 21 3.3
2020-Oct-31 02:15 340 16 gusting 21 2.8
2020-Oct-31 02:00 323 16 gusting 21 3.3
2020-Oct-31 01:45 344 15 gusting 20 3.3
2020-Oct-31 01:33 345 13 gusting 21 2.8
2020-Oct-31 01:15 346 15 gusting 20 3.3
2020-Oct-31 01:02 337 13 gusting 19 2.8
2020-Oct-31 00:47 300 15 gusting 21 2.8
2020-Oct-31 00:33 328 14 gusting 21 2.8
2020-Oct-31 00:17 333 15 gusting 21 2.8
2020-Oct-31 00:01 325 17 gusting 24 2.8
2020-Oct-30 23:46 330 17 gusting 22 2.8
2020-Oct-30 23:31 338 14 gusting 23 2.8
2020-Oct-30 23:17 350 19 gusting 25 2.8
2020-Oct-30 23:01 323 19 gusting 26 2.8
2020-Oct-30 22:45 345 20 gusting 26 2.2
2020-Oct-30 22:30 344 19 gusting 26 2.2
2020-Oct-30 22:15 330 19 gusting 27 2.2
2020-Oct-30 22:01 347 19 gusting 28 1.7
2020-Oct-30 21:46 345 21 gusting 31 1.7
2020-Oct-30 21:31 358 21 gusting 28 2.2
2020-Oct-30 21:15 342 20 gusting 28 2.2
2020-Oct-30 21:00 344 23 gusting 28 1.7
2020-Oct-30 20:45 347 22 gusting 27 2.2
2020-Oct-30 20:30 023 22 gusting 29 2.2
2020-Oct-30 20:16 340 21 gusting 32 1.7
2020-Oct-30 20:01 340 22 gusting 30 2.2
2020-Oct-30 19:45 333 21 gusting 27 2.2
2020-Oct-30 19:30 330 22 gusting 31 2.2
2020-Oct-30 19:15 347 21 gusting 30 2.2
2020-Oct-30 19:01 339 21 gusting 31 2.8
2020-Oct-30 18:46 356 22 gusting 30 2.8
2020-Oct-30 18:31 318 23 gusting 30 2.8
2020-Oct-30 18:02 326 22 gusting 33 3.9
2020-Oct-30 17:46 001 20 gusting 29 5.0
2020-Oct-30 17:32 001 19 gusting 32 4.4
2020-Oct-30 17:01 049 21 gusting 31 5.0
2020-Oct-30 16:46 036 17 gusting 28 5.0
2020-Oct-30 16:31 008 14 gusting 24 5.0
2020-Oct-30 16:02 004 13 gusting 24 4.4
2020-Oct-30 15:46 345 16 gusting 26 5.0
2020-Oct-30 15:31 341 13 gusting 29 5.0
2020-Oct-30 15:01 008 15 gusting 25 5.0
2020-Oct-30 14:46 347 16 gusting 26 5.0
2020-Oct-30 14:31 344 15 gusting 27 5.0
2020-Oct-30 14:00 025 15 gusting 28 5.6
2020-Oct-30 13:45 058 13 gusting 24 5.6
2020-Oct-30 13:30 016 11 gusting 25 5.6
2020-Oct-30 13:00 013 8 gusting 21 5.6
2020-Oct-30 12:46 025 13 gusting 21 6.1
2020-Oct-30 12:30 340 12 gusting 22 6.1
2020-Oct-30 12:00 025 8 gusting 16 6.1
2020-Oct-30 11:45 025 6 gusting 15 6.1
2020-Oct-30 11:30 030 7 gusting 17 6.7
2020-Oct-30 11:02 105 8 gusting 21 6.1
2020-Oct-30 10:46 352 6 gusting 15 6.1
2020-Oct-30 10:34 017 10 gusting 25 6.7
2020-Oct-30 10:02 032 9 gusting 17 6.7
2020-Oct-30 09:46 359 10 gusting 19 7.2
2020-Oct-30 09:32 043 11 gusting 20 6.7
2020-Oct-30 09:01 027 9 gusting 19 7.8
2020-Oct-30 08:47 358 7 gusting 14 7.2
2020-Oct-30 08:32 037 7 gusting 17 7.2
2020-Oct-30 08:01 058 6 gusting 21 7.2
2020-Oct-30 07:46 027 7 gusting 18 7.8
2020-Oct-30 07:30 053 6 gusting 14 7.8
2020-Oct-30 07:01 018 9 gusting 16 8.3
2020-Oct-30 06:46 026 10 gusting 17 7.8
2020-Oct-30 06:30 052 8 gusting 18 7.8
2020-Oct-30 06:01 334 5 gusting 24 8.3
2020-Oct-30 05:47 326 6 gusting 17 8.3
2020-Oct-30 05:00 353 10 gusting 19 8.3
2020-Oct-30 04:45 037 6 gusting 18 8.3
2020-Oct-30 04:30 053 8 gusting 23 8.3
2020-Oct-30 04:00 044 7 gusting 19 8.3
2020-Oct-30 03:45 342 6 gusting 17 8.9
2020-Oct-30 03:32 034 6 gusting 15 8.9
2020-Oct-30 03:00 356 6 gusting 17 8.9
2020-Oct-30 02:45 013 10 gusting 19 8.9
2020-Oct-30 02:32 010 6 gusting 21 8.9
2020-Oct-30 02:03 056 7 gusting 19 9.4
2020-Oct-30 01:46 342 5 gusting 13 9.4
2020-Oct-30 01:32 037 6 gusting 13 9.4
2020-Oct-30 01:01 086 6 gusting 16 9.4
2020-Oct-30 00:49 037 6 gusting 13 9.4
2020-Oct-30 00:32 044 6 gusting 13 9.4
2020-Oct-30 00:01 060 6 gusting 16 8.9
2020-Oct-29 23:46 043 7 gusting 16 8.9
2020-Oct-29 23:31 030 6 gusting 15 8.9
2020-Oct-29 23:02 346 6 gusting 13 8.9
2020-Oct-29 22:46 010 5 gusting 12 8.3
2020-Oct-29 22:33 334 4 gusting 11 8.3
2020-Oct-29 22:01 037 4 gusting 11 8.3
2020-Oct-29 21:46 067 5 gusting 13 8.3
2020-Oct-29 21:31 044 3 gusting 8 8.3
2020-Oct-29 21:02 031 2 gusting 7 8.3
2020-Oct-29 20:45 044 4 gusting 8 8.3
2020-Oct-29 20:30 058 2 gusting 7 8.9
2020-Oct-29 20:00 079 2 gusting 7 8.9
2020-Oct-29 19:46 089 2 gusting 6 8.9
2020-Oct-29 19:31 041 1 gusting 4 8.9
2020-Oct-29 19:00 328 0 gusting 5 8.9
2020-Oct-29 18:45 101 2 gusting 6 8.3
2020-Oct-29 18:30 113 2 gusting 4 8.3
2020-Oct-29 18:02 117 0 gusting 4 8.3
2020-Oct-29 17:47 132 3 gusting 4 8.9
2020-Oct-29 17:32 083 3 gusting 6 8.9
2020-Oct-29 17:02 157 2 gusting 3 8.9
2020-Oct-29 16:48 088 1 gusting 4 8.9
2020-Oct-29 16:32 111 1 gusting 4 8.9
2020-Oct-29 16:02 047 8.3
2020-Oct-29 15:46 050 0 gusting 2 8.3
2020-Oct-29 15:31 076 8.3
2020-Oct-29 15:01 080 8.3
2020-Oct-29 14:46 050 0 gusting 4 8.3
2020-Oct-29 14:31 001 8.3
2020-Oct-29 14:01 027 0 gusting 2 8.9
2020-Oct-29 13:46 032 8.9
2020-Oct-29 13:31 109 9.4
2020-Oct-29 13:00 082 9.4